Change the Weather History Date:

Saturday, August 3, 2013

  Actual Average Record
Temperature  
Mean Temperature 72 °F 73 °F  
Max Temperature 85 °F 88 °F 95 °F (2008)
Min Temperature 59 °F 58 °F 52 °F (1998)
Degree Days  
Heating Degree Days 0 0  
Month to date heating degree days 0 0  
Since 1 June heating degree days 9 39  
Since 1 July heating degree days 0 0  
Cooling Degree Days 7 8  
Month to date cooling degree days 17 24  
Year to date cooling degree days 633 446  
Since 1 June cooling degree days 608 429  
Growing Degree Days 23 (Base 50)    
Moisture  
Dew Point 56 °F    
Average Humidity 55    
Maximum Humidity 78    
Minimum Humidity 32    
Precipitation  
Precipitation 0.33 in 0.04 in 0.33 in (2013)
Month to date precipitation 0.72 0.11  
Year to date precipitation 5.45 6.18  
Sea Level Pressure  
Sea Level Pressure 30.04 in    
Wind  
Wind Speed 6 mph (SSE)    
Max Wind Speed 24 mph    
Max Gust Speed 30 mph    
Visibility 9 miles    
Events Rain , Thunderstorm    
T = Trace of Precipitation, MM = Missing Value Source: NWS Daily Summary

Daily Weather History Graph

Daily Weather History Graph

Search for Another Location

Airport or City:

Trip Planner

Search our weather history database for the weather conditions in past years. The results will help you decide how hot, cold, wet, or windy it might be!

Date:

Astronomy

Aug. 03, 2013 Rise Set
Actual Time 6:15 AM MDT 8:19 PM MDT
Civil Twilight 5:46 AM MDT 8:48 PM MDT
Nautical Twilight 5:10 AM MDT 9:24 PM MDT
Astronomical Twilight 4:31 AM MDT 10:02 PM MDT
Moon 3:27 AM MDT (8/3) 6:03 PM MDT (8/3)
Length of Visible Light 15h 02m
Length of Day
14h 03m
Waning Crescent, 9% of the Moon is Illuminated
Aug 3
Waning Crescent
Aug 6
New
Aug 14
First Quarter
Aug 20
Full
Aug 28
Last Quarter

Hourly Weather History & Observations

Time (MDT) Temp. Heat Index Dew Point Humidity Pressure Visibility Wind Dir Wind Speed Gust Speed Precip Events Conditions
12:53 AM 70.0 °F - 55.9 °F 61% 29.94 in 10.0 mi East 5.8 mph - N/A   Clear
1:53 AM 66.9 °F - 57.9 °F 73% 29.94 in 10.0 mi South 4.6 mph - N/A   Partly Cloudy
2:53 AM 66.0 °F - 55.9 °F 70% 29.93 in 10.0 mi East 4.6 mph - N/A   Clear
3:53 AM 64.9 °F - 55.0 °F 70% 29.94 in 10.0 mi ESE 5.8 mph - N/A   Clear
4:53 AM 63.0 °F - 55.9 °F 78% 29.97 in 10.0 mi Calm Calm - N/A   Clear
5:53 AM 64.0 °F - 55.9 °F 75% 30.00 in 10.0 mi East 3.5 mph - N/A   Scattered Clouds
6:53 AM 62.1 °F - 55.0 °F 78% 30.03 in 10.0 mi SSE 5.8 mph - N/A   Clear
7:53 AM 66.0 °F - 55.0 °F 68% 30.04 in 10.0 mi SE 8.1 mph - N/A   Mostly Cloudy
8:53 AM 70.0 °F - 55.9 °F 61% 30.04 in 10.0 mi SSE 8.1 mph - N/A   Overcast
9:53 AM 75.0 °F - 55.0 °F 50% 30.03 in 10.0 mi ESE 6.9 mph - N/A   Clear
10:53 AM 79.0 °F - 54.0 °F 42% 30.00 in 10.0 mi Variable 3.5 mph - N/A   Clear
11:53 AM 79.0 °F - 54.0 °F 42% 30.00 in 10.0 mi NNW 4.6 mph - N/A   Clear
12:53 PM 79.0 °F - 55.9 °F 45% 29.98 in 10.0 mi West 8.1 mph - N/A   Clear
1:53 PM 81.0 °F 80.7 °F 55.0 °F 41% 29.97 in 10.0 mi Calm Calm - N/A   Clear
2:53 PM 84.9 °F - 51.1 °F 31% 29.95 in 10.0 mi Calm Calm - N/A   Clear
3:53 PM 82.9 °F - 52.0 °F 34% 29.97 in 10.0 mi South 9.2 mph - N/A   Mostly Cloudy
4:19 PM 73.4 °F - 60.8 °F 65% 30.24 in 3.0 mi WSW 12.7 mph - 0.10 in Rain , Thunderstorm Heavy Rain
4:26 PM 71.6 °F - 59.0 °F 64% 30.25 in 2.0 mi SW 12.7 mph - 0.15 in Rain , Thunderstorm Heavy Rain
4:38 PM 71.6 °F - 55.4 °F 57% 30.26 in 1.5 mi Calm Calm - 0.26 in Rain , Thunderstorm Heavy Thunderstorms and Rain
4:47 PM 71.6 °F - 57.2 °F 60% 30.25 in 2.0 mi Calm Calm - 0.31 in Rain , Thunderstorm Heavy Thunderstorms and Rain
4:53 PM 73.0 °F - 57.0 °F 57% 30.04 in 4.0 mi ESE 4.6 mph - 0.32 in Rain , Thunderstorm Rain
5:30 PM 71.6 °F - 59.0 °F 64% 30.26 in 10.0 mi SSE 16.1 mph - 0.01 in Rain Light Rain
5:53 PM 72.0 °F - 57.9 °F 61% 30.03 in 10.0 mi SSE 16.1 mph 28.8 mph 0.01 in   Mostly Cloudy
6:53 PM 72.0 °F - 57.0 °F 59% 30.03 in 10.0 mi South 18.4 mph - N/A   Clear
7:53 PM 71.1 °F - 55.9 °F 59% 30.01 in 10.0 mi SSE 17.3 mph - N/A   Clear
8:53 PM 68.0 °F - 55.9 °F 65% 30.01 in 10.0 mi SE 10.4 mph - N/A   Clear
9:53 PM 66.9 °F - 55.0 °F 66% 30.03 in 10.0 mi East 4.6 mph - N/A   Clear
10:53 PM 63.0 °F - 55.0 °F 75% 30.03 in 10.0 mi SSE 3.5 mph - N/A   Clear
11:53 PM 62.1 °F - 55.9 °F 80% 30.04 in 10.0 mi South 4.6 mph - N/A   Clear